x

Diamond Shoals (41025) Weather Station

7:00am - Fri 24th Nov 2017 All times are EST. -5 hours from GMT.

  • Wind
    22mph, 27mph gusts
  • Sea Temp 71°f
  • Air Temp 59°f
  • Sea Pressure 1016.1mb
  • Diamond Shoals
  • Diamond Shoals

More Historic Weather Station data

Upgrade to MSW Pro to gain access to the past 30 days of data for over 8000 Wavebouys and Weather Stations around the globe.

Join

Comparision Forecast

View Surf forecast
   
Fri 11/24 7:00am  -   -   -  22 27 mph 1016.1mb 71f 59f
6:50am 6ft 10s 6s 20 27 mph 1016.3mb - 58f
6:40am 6ft  -  6s 20 27 mph 1016.2mb 72f 59f
6:30am  -   -   -  20 27 mph 1016.1mb 72f 58f
6:20am  -   -   -  22 27 mph 1016.1mb 72f 58f
6:10am  -   -   -  20 25 mph 1016.1mb 71f 58f
6:00am  -   -   -  20 25 mph 1016.1mb 72f 58f
5:50am 6ft 11s 6s 20 27 mph 1016mb 72f 58f
5:40am  -   -   -  20 27 mph 1015.9mb 72f 58f
5:30am  -   -   -  20 27 mph 1015.8mb 72f 58f
5:20am  -   -   -  20 27 mph 1015.8mb 72f 58f
5:10am  -   -   -  20 27 mph 1015.8mb 72f 58f
5:00am  -   -   -  20 27 mph 1015.9mb 72f 58f
4:50am 6ft 11s 6s 20 27 mph 1015.7mb 72f 58f
4:40am 6ft  -  6s 22 27 mph 1015.6mb 72f 58f
4:30am  -   -   -  20 27 mph 1015.7mb 72f 58f
4:20am  -   -   -  20 27 mph 1015.8mb 72f 58f
4:10am  -   -   -  20 25 mph 1016mb 72f 58f
4:00am  -   -   -  20 27 mph 1015.9mb 72f 58f
3:50am 5ft 10s 6s 20 27 mph 1015.9mb 72f 58f
3:40am  -   -   -  20 25 mph 1016mb 72f 57f
3:30am  -   -   -  20 27 mph 1016mb 72f 57f
3:20am  -   -   -  20 25 mph 1015.9mb 72f 57f
3:10am  -   -   -  20 25 mph 1015.9mb 72f 57f
3:00am  -   -   -  18 25 mph 1016mb 72f 57f
2:50am 5ft 9s 6s 18 25 mph 1016.2mb 72f 57f
2:40am 5ft  -  6s 20 25 mph 1016mb 72f 57f
2:30am  -   -   -  18 25 mph 1016.2mb 72f 57f
2:20am  -   -   -  18 25 mph 1016.2mb 72f 57f
2:10am  -   -   -  18 22 mph 1016.3mb 72f 57f
2:00am  -   -   -  18 22 mph 1016.3mb 72f 57f
1:50am 4.5ft 9s 6s 18 22 mph 1016.3mb 72f 57f
1:40am 4.5ft  -  6s 18 22 mph 1016.3mb 72f 57f
1:30am  -   -   -  18 22 mph 1016.5mb 72f 57f
1:20am  -   -   -  18 22 mph 1016.5mb 72f 57f
1:10am  -   -   -  18 22 mph 1016.5mb 72f 57f
1:00am  -   -   -  18 22 mph 1016.4mb 72f 57f
12:50am 5ft 9s 7s 18 20 mph 1016.4mb 72f 57f
12:40am 5ft  -  7s 16 20 mph 1016.5mb 72f 56f
12:30am  -   -   -  16 22 mph 1016.6mb - 56f
12:20am  -   -   -  16 20 mph 1017mb 72f 56f
12:10am  -   -   -  16 22 mph 1016.9mb 72f 56f
12:00am  -   -   -  16 20 mph 1016.9mb 72f 56f
Thu 11/23 11:50pm 5ft 9s 6s 16 22 mph 1017.1mb 72f 56f
11:40pm 5ft  -  6s 16 22 mph 1017mb 72f 56f
11:30pm  -   -   -  16 20 mph 1017.1mb 72f 56f
11:20pm  -   -   -  16 20 mph 1017.1mb 72f 56f
11:10pm  -   -   -  16 20 mph 1017.1mb 72f 56f
11:00pm  -   -   -  16 22 mph 1017.1mb 72f 57f
10:50pm 4.5ft 9s 7s 16 20 mph 1017.1mb 72f 56f
10:40pm 4.5ft  -  7s 16 18 mph 1017.1mb 72f 57f
10:30pm  -   -   -  13 20 mph 1017.2mb 72f 56f
10:20pm  -   -   -  16 20 mph 1017.2mb 71f 57f
10:10pm  -   -   -  13 18 mph 1017.4mb 71f 57f
10:00pm  -   -   -  13 18 mph 1017.4mb 71f 57f
9:50pm 4.5ft 8s 7s 13 18 mph 1017.2mb 71f 57f
9:40pm  -   -   -  13 20 mph 1017.1mb 71f 57f
9:30pm  -   -   -  13 18 mph 1017.2mb 71f 57f
9:20pm  -   -   -  13 18 mph 1017.2mb 71f 57f
9:10pm  -   -   -  13 20 mph 1017mb 71f 57f
9:00pm  -   -   -  13 18 mph 1016.9mb 71f 57f
8:50pm 4.5ft 9s 6s 13 20 mph 1016.8mb 71f 57f
8:40pm 4.5ft  -  6s 13 20 mph 1016.8mb 71f 57f
8:30pm  -   -   -  13 18 mph 1017.2mb 71f 57f
8:20pm  -   -   -  13 18 mph 1017.1mb 71f 57f
8:10pm  -   -   -  13 18 mph 1017.2mb 71f 57f
8:00pm  -   -   -  11 16 mph 1017.3mb 71f 57f
7:50pm 5ft 9s 7s 11 18 mph 1017.5mb 71f 57f
7:40pm 5ft  -  7s 11 16 mph 1017.6mb 71f 57f
7:30pm  -   -   -  11 16 mph 1017.6mb 71f 57f
7:20pm  -   -   -  11 16 mph 1017.7mb 71f 56f
7:10pm  -   -   -  11 16 mph 1017.7mb 71f 56f
7:00pm  -   -   -  11 16 mph 1017.7mb - 56f
6:50pm 5.5ft 9s 7s 13 18 mph 1017.7mb 71f 56f
6:40pm 5.5ft  -  7s 13 18 mph 1017.6mb 71f 56f
6:20pm  -   -   -  16 20 mph 1017.4mb 71f 56f
6:10pm  -   -   -  13 18 mph 1017.6mb 71f 56f
6:00pm  -   -   -  11 18 mph 1017.7mb 71f 56f
5:50pm 5ft 10s 6s 13 18 mph 1017.7mb 71f 55f
5:40pm 5ft  -  6s 13 18 mph 1017.7mb 71f 55f
5:30pm  -   -   -  13 20 mph 1017.8mb - 55f
5:20pm  -   -   -  13 18 mph 1017.7mb - 55f
5:10pm  -   -   -  16 20 mph 1017.8mb 71f 55f
5:00pm  -   -   -  16 20 mph 1017.7mb 71f 55f
4:50pm 5ft 9s 6s 16 25 mph 1017.7mb 71f 55f
4:40pm 5ft  -  6s 16 22 mph 1017.7mb 71f 55f
4:30pm  -   -   -  18 22 mph 1017.6mb 71f 55f
4:20pm  -   -   -  16 20 mph 1017.7mb 71f 55f
4:10pm  -   -   -  18 22 mph 1017.7mb 71f 55f
4:00pm  -   -   -  20 22 mph 1017.4mb 72f 55f
3:50pm 6ft 9s 6s 18 22 mph 1017.4mb 71f 55f
3:40pm  -   -   -  18 22 mph 1017.4mb 71f 55f
3:30pm  -   -   -  20 27 mph 1017.4mb 71f 55f
3:20pm  -   -   -  20 27 mph 1017.3mb 72f 55f
3:10pm  -   -   -  20 25 mph 1017.4mb 72f 55f
3:00pm  -   -   -  18 25 mph 1017.4mb 72f 55f
2:50pm 5ft 8s 5s 20 25 mph 1017.3mb 72f 55f
2:40pm  -   -   -  20 25 mph 1017.3mb - 55f
2:30pm  -   -   -  20 25 mph 1017.3mb 72f 55f
2:20pm  -   -   -  18 25 mph 1017.2mb 72f 56f
2:10pm  -   -   -  20 25 mph 1017.4mb 72f 56f
2:00pm  -   -   -  20 25 mph 1017.3mb 72f 56f
1:50pm 5ft 9s 6s 18 25 mph 1017.4mb 72f 56f
1:40pm  -   -   -  18 27 mph 1017.4mb 71f 56f
1:30pm  -   -   -  18 22 mph 1017.3mb 71f 56f
1:20pm  -   -   -  18 22 mph 1017.4mb 72f 56f
1:10pm  -   -   -  16 22 mph 1017.6mb 72f 57f
1:00pm  -   -   -  16 20 mph 1017.7mb 72f 57f
12:50pm 4.5ft 9s 6s 16 20 mph 1017.6mb 71f 57f
12:40pm 4.5ft  -  6s 16 20 mph 1017.7mb 71f 57f
12:30pm  -   -   -  16 20 mph 1017.8mb 71f 57f
12:20pm  -   -   -  16 20 mph 1017.9mb 71f 57f
12:10pm  -   -   -  16 20 mph 1017.9mb 71f 57f
12:00pm  -   -   -  16 22 mph 1018mb 71f 57f
11:50am 5.5ft 9s 7s 16 20 mph 1018.5mb 71f 57f
11:40am 5.5ft  -  7s 16 20 mph 1018.6mb 71f 57f
11:30am  -   -   -  13 20 mph 1018.9mb 71f 57f
11:20am  -   -   -  16 20 mph 1019mb 71f 57f
11:10am  -   -   -  16 18 mph 1019.2mb 71f 57f
11:00am  -   -   -  13 20 mph 1019.4mb 71f 57f
10:50am 5.5ft 9s 7s 13 18 mph 1019.6mb 71f 57f
10:40am 5.5ft  -  7s 13 18 mph 1019.6mb 71f 57f
10:30am  -   -   -  13 20 mph 1019.7mb 71f 57f
10:20am  -   -   -  16 20 mph 1019.6mb 71f 57f
10:10am  -   -   -  16 20 mph 1019.4mb 71f 57f
10:00am  -   -   -  16 20 mph 1019.5mb 71f 57f
9:50am 5.5ft 9s 6s 16 22 mph 1019.6mb 71f 57f
9:40am 5.5ft  -  6s 16 20 mph 1019.9mb 71f 57f
9:30am  -   -   -  16 20 mph 1019.7mb 71f 57f
9:20am  -   -   -  16 20 mph 1019.7mb 71f 56f
9:10am  -   -   -  16 20 mph 1019.6mb 71f 56f
9:00am  -   -   -  16 22 mph 1019.2mb 71f 56f
8:50am 5.5ft 9s 6s 16 20 mph 1019.3mb 71f 56f
8:40am 5.5ft  -  6s 16 20 mph 1019.4mb 71f 57f
8:30am  -   -   -  16 22 mph 1019.5mb 71f 57f
8:20am  -   -   -  13 20 mph 1019.4mb 71f 56f
8:10am  -   -   -  13 18 mph 1019.7mb 71f 56f
8:00am  -   -   -  13 18 mph 1019.3mb 71f 57f
7:50am 6ft 9s 7s 16 20 mph 1019.2mb 72f 57f
7:40am 6ft  -  7s 16 22 mph 1019.3mb 72f 57f
7:30am  -   -   -  16 22 mph 1019.2mb 72f 57f
7:20am  -   -   -  16 20 mph 1019mb 72f 57f
7:10am  -   -   -  16 22 mph 1018.9mb 72f 57f
7:00am  -   -   -  16 20 mph 1018.9mb 71f 57f
6:50am 6ft 9s 6s 16 20 mph 1018.9mb 71f 56f
6:40am 6ft  -  6s 16 22 mph 1018.7mb - 56f
6:30am  -   -   -  16 22 mph 1018.7mb 71f 56f
6:20am  -   -   -  18 22 mph 1018.8mb 71f 56f
6:10am  -   -   -  18 22 mph 1018.9mb 71f 56f
6:00am  -   -   -  18 25 mph 1018.7mb 71f 56f
5:50am 6.5ft 9s 6s 18 25 mph 1018.6mb 72f 56f
5:40am  -   -   -  18 25 mph 1018.7mb 72f 56f
5:30am  -   -   -  18 22 mph 1018.6mb 72f 56f
5:20am  -   -   -  18 22 mph 1018.7mb 72f 56f
5:10am  -   -   -  18 25 mph 1018.6mb 72f 56f
5:00am  -   -   -  18 22 mph 1018.5mb 72f 56f
4:50am 7ft 9s 6s 18 25 mph 1018.5mb 72f 56f
4:40am  -   -   -  18 27 mph 1018.4mb 71f 56f
4:30am  -   -   -  18 25 mph 1018.4mb 71f 56f
4:20am  -   -   -  20 27 mph 1018.5mb 72f 56f
4:10am  -   -   -  20 27 mph 1018.3mb 72f 56f
4:00am  -   -   -  20 27 mph 1018.3mb 72f 56f
3:50am 6.5ft 9s 6s 20 27 mph 1018.3mb 71f 56f
3:40am 6.5ft  -  6s 20 27 mph 1018.4mb 72f 56f
3:30am  -   -   -  20 27 mph 1018.3mb 72f 56f
3:20am  -   -   -  20 27 mph 1018.4mb 72f 57f
3:10am  -   -   -  20 27 mph 1018.5mb 72f 57f
3:00am  -   -   -  18 25 mph 1018.7mb 72f 57f
2:50am 7ft 10s 6s 20 29 mph 1018.7mb 72f 57f
2:40am  -   -   -  22 29 mph 1018.5mb 72f 57f
2:30am  -   -   -  20 27 mph 1018.5mb 72f 57f
2:20am  -   -   -  22 27 mph 1018.7mb 73f 57f
2:10am  -   -   -  22 29 mph 1018.6mb 73f 57f
2:00am  -   -   -  22 29 mph 1018.5mb 73f 57f
1:50am 7.5ft 9s 6s 22 29 mph 1018.6mb 73f 57f
1:40am 7.5ft  -  6s 22 27 mph 1018.6mb 73f 57f
1:30am  -   -   -  22 29 mph 1018.7mb 73f 57f
1:20am  -   -   -  22 29 mph 1018.8mb 73f 57f
1:10am  -   -   -  22 29 mph 1018.6mb 72f 57f
1:00am  -   -   -  22 29 mph 1018.7mb 72f 58f
12:50am 7ft 9s 6s 22 31 mph 1018.6mb 72f 58f
12:40am 7ft  -  6s 25 29 mph 1018.6mb 72f 58f
12:30am  -   -   -  25 29 mph 1018.7mb 72f 58f
12:20am  -   -   -  22 27 mph 1018.7mb 72f 58f
12:10am  -   -   -  22 29 mph 1018.9mb 72f 58f
12:00am  -   -   -  22 27 mph 1018.9mb 72f 58f
Wed 11/22 11:50pm 7ft 9s 6s 22 27 mph 1018.9mb 72f 58f
11:40pm 7ft  -  6s 22 31 mph 1018.8mb 72f 58f
11:30pm  -   -   -  22 29 mph 1018.7mb 72f 59f
11:20pm  -   -   -  22 29 mph 1018.7mb 72f 59f
11:10pm  -   -   -  22 29 mph 1018.8mb 72f 59f
11:00pm  -   -   -  22 29 mph 1018.6mb 72f 59f
10:50pm 6.5ft 9s 6s 22 29 mph 1018.5mb 72f 59f
10:40pm 6.5ft  -  6s 22 31 mph 1018.5mb 72f 60f
10:30pm  -   -   -  22 29 mph 1018.4mb 73f 60f
10:20pm  -   -   -  22 29 mph 1018.4mb 73f 60f
10:10pm  -   -   -  22 29 mph 1018.4mb 73f 60f
10:00pm  -   -   -  22 27 mph 1018.3mb 73f -
9:50pm 6.5ft  -  6s 22 27 mph 1018.2mb 73f -
9:40pm  -   -   -  22 29 mph 1018.1mb 73f 60f
9:30pm  -   -   -  20 29 mph 1018mb 73f 61f
9:20pm  -   -   -  22 29 mph 1017.9mb 73f 61f
9:10pm  -   -   -  22 27 mph 1017.9mb 73f 61f
9:00pm  -   -   -  22 27 mph 1017.9mb 73f 61f
8:50pm 7ft  -  6s 22 29 mph 1017.9mb 73f -
8:40pm 7ft  -  6s 22 29 mph 1017.7mb 73f 61f
8:30pm  -   -   -  22 29 mph 1017.6mb 73f 62f
8:20pm  -   -   -  25 29 mph 1017.4mb 74f 62f
8:10pm  -   -   -  22 29 mph 1017.4mb 73f 62f
8:00pm  -   -   -  22 29 mph 1017.3mb 73f -
7:50pm 7ft 8s 6s 22 29 mph 1017.2mb 74f 62f
7:40pm  -   -   -  22 29 mph 1017.2mb 74f 62f
7:30pm  -   -   -  22 29 mph 1017.1mb 74f 62f
7:20pm  -   -   -  22 31 mph 1016.9mb 74f 62f
7:10pm  -   -   -  22 34 mph 1016.8mb 74f 62f
7:00pm  -   -   -  25 31 mph 1016.6mb 74f 62f
6:50pm 7ft 9s 6s 22 29 mph 1016.6mb 74f 62f
6:40pm 7ft  -  6s 25 31 mph 1016.3mb 74f 62f
6:30pm  -   -   -  25 31 mph 1016.3mb 74f 62f
6:20pm  -   -   -  25 31 mph 1016.1mb 74f 62f
6:10pm  -   -   -  25 31 mph 1015.9mb 74f 62f
6:00pm  -   -   -  25 31 mph 1015.7mb 74f 62f
5:50pm 7ft 9s 6s 25 31 mph 1015.6mb 74f 62f
5:40pm  -   -   -  27 34 mph 1015.3mb 74f 62f
5:30pm  -   -   -  27 34 mph 1015.3mb 74f 62f
5:20pm  -   -   -  29 36 mph 1015mb 74f 62f
5:10pm  -   -   -  27 36 mph 1014.9mb 74f 62f
5:00pm  -   -   -  27 34 mph 1014.8mb 74f 63f
4:50pm 6.5ft 9s 6s 27 36 mph 1014.6mb 74f 62f
4:40pm 6.5ft  -  6s 27 34 mph 1014.5mb 74f 63f
4:30pm  -   -   -  27 34 mph 1014.4mb 74f 62f
4:20pm  -   -   -  27 34 mph 1014.3mb 74f 62f
4:10pm  -   -   -  27 36 mph 1014.1mb 74f 62f
4:00pm  -   -   -  27 34 mph 1013.9mb 74f 62f
3:50pm 6.5ft 9s 6s 29 36 mph 1013.8mb 74f 62f
3:40pm 6.5ft  -  6s 29 36 mph 1013.7mb 74f 62f
3:30pm  -   -   -  29 36 mph 1013.5mb 74f 62f
3:20pm  -   -   -  27 36 mph 1013.5mb 74f 63f
3:10pm  -   -   -  27 34 mph 1013.4mb 75f 63f
3:00pm  -   -   -  27 34 mph 1013.1mb 75f 63f
2:50pm 5.5ft 9s 6s 25 31 mph 1013.1mb 75f 64f
2:40pm 5.5ft  -  6s 22 29 mph 1012.9mb 75f 64f
2:30pm  -   -   -  20 27 mph 1013mb 75f 64f
2:20pm  -   -   -  22 27 mph 1013.1mb 75f 64f
2:10pm  -   -   -  20 25 mph 1013.1mb 75f 64f
2:00pm  -   -   -  18 25 mph 1013.1mb 75f 64f
1:50pm 6ft 9s 6s 18 25 mph 1013mb 75f 64f
1:40pm 6ft  -  6s 20 25 mph 1013.1mb - 64f
1:30pm  -   -   -  18 25 mph 1012.9mb 75f 63f
1:20pm  -   -   -  18 22 mph 1012.9mb 75f 63f
1:10pm  -   -   -  16 22 mph 1013mb 75f 63f
1:00pm  -   -   -  16 22 mph 1012.8mb 75f 63f
12:50pm 6ft 8s 6s 16 20 mph 1012.7mb 75f 63f
12:40pm 6ft  -  6s 16 22 mph 1012.8mb 75f 63f
12:30pm  -   -   -  16 20 mph 1012.9mb 75f 63f
12:20pm  -   -   -  16 20 mph 1013mb 75f 63f
12:10pm  -   -   -  18 22 mph 1012.9mb 75f 63f
12:00pm  -   -   -  18 25 mph 1013mb 75f 63f
11:50am 5.5ft 9s 6s 20 25 mph 1013.1mb 75f 63f
11:40am  -   -   -  20 25 mph 1013.2mb 75f 63f
11:30am  -   -   -  16 22 mph 1013.1mb - 63f
11:20am  -   -   -  16 22 mph 1013.4mb 75f 63f
11:10am  -   -   -  16 20 mph 1013.3mb 75f 63f
11:00am  -   -   -  16 20 mph 1013.4mb 75f 63f
10:50am 5.5ft 7s 6s 16 22 mph 1013.5mb 75f 63f
10:40am 5.5ft  -  6s 16 20 mph 1013.4mb 75f 63f
10:30am  -   -   -  16 20 mph 1013.4mb 75f 64f
10:20am  -   -   -  16 20 mph 1013.5mb 75f 64f
10:10am  -   -   -  16 22 mph 1013.5mb 75f 65f
10:00am  -   -   -  16 20 mph 1013.4mb 75f 65f
9:50am 5.5ft 8s 6s 13 18 mph 1013.1mb 75f 65f
9:40am 5.5ft  -  6s 13 18 mph 1013mb 74f 65f
9:30am  -   -   -  11 16 mph 1012.8mb 74f 65f
9:20am  -   -   -  9 13 mph 1012.4mb 74f 65f
9:10am  -   -   -  11 16 mph 1012.4mb - 65f
9:00am  -   -   -  11 16 mph 1012.3mb 74f 65f
8:50am 6ft 8s 6s 9 13 mph 1012.1mb 74f 65f
8:40am 6ft  -  6s 11 16 mph 1012.1mb 75f 65f
8:30am  -   -   -  13 18 mph 1012mb 74f 66f
8:20am  -   -   -  11 16 mph 1011.9mb 74f 66f
8:10am  -   -   -  11 18 mph 1011.8mb 74f 67f
8:00am  -   -   -  11 16 mph 1012mb - 67f
7:50am 8ft 7s 6s 11 18 mph 1011.9mb 74f 67f
7:40am 8ft  -  6s 11 20 mph 1011.9mb - 67f
7:30am  -   -   -  11 16 mph 1011.8mb 74f 67f
7:20am  -   -   -  11 16 mph 1011.8mb 74f 67f
7:10am  -   -   -  13 18 mph 1011.4mb 74f 67f
7:00am  -   -   -  16 20 mph 1011.2mb 74f 67f
6:50am 9ft 8s 7s 18 22 mph 1011mb 74f 67f
6:40am  -   -   -  18 25 mph 1010.6mb 75f 66f
6:30am  -   -   -  20 25 mph 1010.2mb 75f 65f
6:20am  -   -   -  20 27 mph 1009.6mb 75f 65f
6:10am  -   -   -  22 29 mph 1010.1mb 74f 64f
6:00am  -   -   -  20 25 mph 1010.5mb 74f 64f
5:50am 6ft 7s 6s 18 22 mph 1011.3mb 74f 63f
5:40am 6ft  -  6s 16 20 mph 1012mb 74f 63f
5:30am  -   -   -  16 22 mph 1013.1mb 75f 64f
5:20am  -   -   -  20 27 mph 1013.1mb 75f 64f
5:10am  -   -   -  20 27 mph 1012.8mb 74f 64f
5:00am  -   -   -  20 29 mph 1012mb 75f 64f
4:50am 7ft 8s 6s 20 27 mph 1012.1mb 74f 64f
4:40am  -   -   -  16 22 mph 1012.2mb 74f 65f
4:30am  -   -   -  11 20 mph 1012.1mb 75f 65f
4:20am  -   -   -  11 18 mph 1012.6mb 75f 64f
4:10am  -   -   -  9 16 mph 1012.9mb 75f 63f
4:00am  -   -   -  9 16 mph 1013.8mb 75f 63f
3:50am 7ft 7s 6s 11 16 mph 1013.7mb 75f 64f
3:40am 7ft  -  6s 9 13 mph 1013.9mb 75f 65f
3:30am  -   -   -  9 16 mph 1013.2mb 75f 66f
3:20am  -   -   -  16 25 mph 1013.1mb 75f 67f
3:10am  -   -   -  22 27 mph 1012.9mb 75f 69f
3:00am  -   -   -  25 31 mph 1012.5mb 75f 69f
2:50am 7ft 7s 5s 27 34 mph 1013mb 75f 69f
1:50am 6ft 6s 5s 22 29 mph 1013.4mb 75f 73f
12:50am 6ft 6s 5s 25 31 mph 1015.3mb 75f 73f
12:10am  -   -   -  22 29 mph 1016.4mb 75f 73f
12:00am  -   -   -  22 29 mph 1016.4mb 75f 73f
Tue 11/21 11:50pm 5ft 6s 5s 22 27 mph 1016.5mb 75f 73f
11:40pm  -   -   -  22 27 mph 1016.6mb 75f 73f
11:30pm  -   -   -  22 27 mph 1016.9mb 75f 73f
11:20pm  -   -   -  22 27 mph 1017mb 75f 73f
11:10pm  -   -   -  20 27 mph 1017mb 75f 73f
11:00pm  -   -   -  16 22 mph 1017.2mb 75f 72f
10:50pm 4.5ft 5s 4s 16 20 mph 1017.3mb 75f 70f
10:40pm 4.5ft  -  4s 20 27 mph 1017.5mb 75f 70f
10:30pm  -   -   -  25 29 mph 1017.8mb 76f 71f
10:20pm  -   -   -  18 27 mph 1017.8mb 76f 71f
10:10pm  -   -   -  18 25 mph 1018.2mb 76f 70f
10:00pm  -   -   -  18 20 mph 1018.5mb 76f 69f
9:50pm 4ft 5s 4s 18 22 mph 1018.5mb 76f 68f
9:40pm 4ft  -  4s 18 22 mph 1018.8mb 76f 69f
9:30pm  -   -   -  25 34 mph 1019mb 76f 69f
9:20pm  -   -   -  20 31 mph 1018.7mb 76f 73f
9:10pm  -   -   -  20 25 mph 1018.8mb 76f 73f
9:00pm  -   -   -  20 25 mph 1019mb 76f 72f
8:50pm 4ft 5s 4s 20 27 mph 1019.3mb 76f 72f
8:40pm  -   -   -  20 25 mph 1019.4mb 76f 73f
8:30pm  -   -   -  20 25 mph 1019.6mb 76f 73f
8:20pm  -   -   -  20 25 mph 1019.6mb 76f 73f
8:10pm  -   -   -  20 25 mph 1019.7mb - 72f
8:00pm  -   -   -  20 25 mph 1019.8mb 76f -
7:50pm 4ft 5s 4s 18 25 mph 1020.1mb 76f 72f
7:40pm 4ft  -  4s 18 25 mph 1020.2mb 76f 72f
7:30pm  -   -   -  20 22 mph 1020.3mb 76f 72f
7:20pm  -   -   -  20 27 mph 1020.4mb 76f 72f
7:10pm  -   -   -  22 29 mph 1020.5mb 76f 72f
7:00pm  -   -   -  20 27 mph 1020.4mb 76f 72f
6:50pm 3.5ft 5s 4s 18 22 mph 1020.7mb - 72f
6:40pm 3.5ft  -  4s 20 25 mph 1020.8mb 76f 72f
6:30pm  -   -   -  18 22 mph 1020.9mb 76f 72f
6:20pm  -   -   -  18 27 mph 1020.7mb 76f 72f
6:10pm  -   -   -  11 22 mph 1020.7mb 76f 71f
6:00pm  -   -   -  11 16 mph 1020.9mb 76f 71f
5:50pm 3ft 4s 4s 11 16 mph 1020.9mb 76f 71f
5:40pm  -   -   -  18 22 mph 1020.9mb 76f 71f
5:30pm  -   -   -  16 25 mph 1021.1mb 76f 70f
5:20pm  -   -   -  18 25 mph 1021.1mb 76f 71f
5:10pm  -   -   -  16 20 mph 1021.1mb 76f 71f
5:00pm  -   -   -  18 22 mph 1021mb 76f 71f
4:50pm 2.5ft 4s 4s 16 22 mph 1020.9mb 76f 71f
4:40pm 2.5ft  -  4s 11 20 mph 1021mb 76f 71f
4:30pm  -   -   -  16 22 mph 1021.2mb 76f 71f
4:20pm  -   -   -  16 20 mph 1021.3mb 76f 71f
4:10pm  -   -   -  16 18 mph 1021.2mb 76f 71f
4:00pm  -   -   -  16 20 mph 1021.3mb 76f 71f
3:50pm 2.5ft 4s 4s 16 20 mph 1021.2mb 76f 71f
3:40pm 2.5ft  -  4s 18 22 mph 1021.2mb 76f 71f
3:30pm  -   -   -  16 22 mph 1021.2mb 76f 71f
3:20pm  -   -   -  16 20 mph 1021.2mb 76f 71f
3:10pm  -   -   -  16 20 mph 1021.3mb 76f 71f
3:00pm  -   -   -  16 20 mph 1021.5mb 76f 71f
2:50pm 2.5ft 4s 4s 13 20 mph 1021.3mb 76f 71f
2:40pm  -   -   -  13 18 mph 1021.3mb 76f 71f
2:30pm  -   -   -  13 18 mph 1021.3mb 76f 70f
2:20pm  -   -   -  16 18 mph 1021.4mb 76f 70f
2:10pm  -   -   -  13 20 mph 1021.3mb 76f 70f
2:00pm  -   -   -  13 18 mph 1021.5mb 76f 70f
1:50pm 2ft 8s 4s 13 22 mph 1021.6mb - 70f
1:40pm 2ft  -  4s 13 16 mph 1021.6mb 76f 70f
1:30pm  -   -   -  13 16 mph 1021.7mb 76f 70f
1:20pm  -   -   -  13 18 mph 1021.9mb 76f 70f
1:10pm  -   -   -  13 18 mph 1022.1mb 76f 70f
1:00pm  -   -   -  13 18 mph 1022.4mb 77f 70f
12:50pm 2ft 9s 4s 13 18 mph 1022.5mb 77f 70f
12:40pm 2ft  -  4s 13 20 mph 1022.7mb 77f 70f
12:30pm  -   -   -  13 20 mph 1022.8mb 77f 69f
12:20pm  -   -   -  13 20 mph 1023.1mb 77f 69f
12:10pm  -   -   -  13 18 mph 1023.2mb 77f 69f
12:00pm  -   -   -  16 18 mph 1023.4mb 77f 69f
11:50am 2ft 8s 4s 11 20 mph 1023.5mb 77f 69f
11:40am  -   -   -  13 20 mph 1023.7mb 77f 69f
11:30am  -   -   -  11 18 mph 1023.8mb 77f 69f
11:20am  -   -   -  13 20 mph 1023.9mb 77f 69f
11:10am  -   -   -  11 18 mph 1024mb 77f 69f
11:00am  -   -   -  11 18 mph 1024.4mb 77f 69f
10:50am 2ft 8s 4s 7 11 mph 1024.4mb 77f 66f
10:40am 2ft  -  4s 4 11 mph 1024.6mb 77f 66f
10:30am  -   -   -  9 18 mph 1024.7mb 77f 68f
10:20am  -   -   -  13 18 mph 1024.7mb 77f 68f
10:10am  -   -   -  16 20 mph 1024.7mb 77f 68f
10:00am  -   -   -  13 20 mph 1024.7mb 77f 68f
9:50am 2.5ft 8s 4s 13 20 mph 1024.8mb - 68f
9:40am 2.5ft  -  4s 16 22 mph 1024.9mb 77f 68f
9:30am  -   -   -  13 20 mph 1024.8mb 77f -
9:20am  -   -   -  11 16 mph 1024.9mb 77f 67f
9:10am  -   -   -  7 9 mph 1024.9mb 77f 64f
9:00am  -   -   -  7 11 mph 1024.9mb 77f 64f
8:50am 2.5ft 8s 5s 9 13 mph 1024.8mb 77f 64f
8:40am  -   -   -  9 16 mph 1024.9mb 77f 64f
8:30am  -   -   -  4 11 mph 1024.8mb 76f 65f
8:20am  -   -   -  9 16 mph 1024.6mb 76f 65f
8:10am  -   -   -  9 13 mph 1024.6mb 76f 65f
8:00am  -   -   -  11 16 mph 1024.6mb - 67f
7:50am 2.5ft 8s 5s 7 16 mph 1024.6mb 76f 65f
7:40am  -   -   -  4 9 mph 1024.5mb 76f 64f
7:30am  -   -   -  7 9 mph 1024.5mb 76f 64f
7:20am  -   -   -  4 7 mph 1024.4mb 76f 63f
7:10am  -   -   -  7 11 mph 1024.5mb 76f 63f
7:00am  -   -   -  7 13 mph 1024.4mb 75f 63f
6:50am 2.5ft 8s 6s 7 11 mph 1024.3mb 76f 63f
6:40am 2.5ft  -  6s 4 7 mph 1024.3mb 76f 63f
6:30am  -   -   -  7 11 mph 1024.2mb 75f 62f
6:20am  -   -   -  7 13 mph 1024.3mb 75f 62f
6:10am  -   -   -  7 9 mph 1024.3mb 75f 62f
6:00am  -   -   -  7 9 mph 1024.4mb 75f 62f
5:50am 2ft 8s 5s 7 11 mph 1024.4mb 75f 62f
5:40am 2ft  -  5s 9 11 mph 1024.4mb 75f 61f
5:30am  -   -   -  9 13 mph 1024.5mb 75f 62f
5:20am  -   -   -  9 13 mph 1024.4mb 75f 62f
5:10am  -   -   -  9 11 mph 1024.5mb 75f 62f
5:00am  -   -   -  9 11 mph 1024.3mb 75f 61f
4:50am 2.5ft 8s 6s 9 11 mph 1024.3mb 75f 61f
4:40am 2.5ft  -  6s 9 13 mph 1024.3mb 75f 61f
4:30am  -   -   -  7 11 mph 1024.4mb 75f 61f
4:20am  -   -   -  7 11 mph 1024.4mb 75f 61f
4:10am  -   -   -  7 9 mph 1024.3mb 75f 61f
4:00am  -   -   -  7 9 mph 1024.3mb 75f 61f
3:50am 2.5ft 8s 6s 7 9 mph 1024.3mb - 61f
3:40am 2.5ft  -  6s 7 9 mph 1024.4mb 75f 61f
3:30am  -   -   -  7 9 mph 1024.5mb 75f 61f
3:20am  -   -   -  7 9 mph 1024.4mb 75f 60f
3:10am  -   -   -  7 11 mph 1024.5mb 75f 60f
3:00am  -   -   -  7 9 mph 1024.7mb 75f 60f
2:50am 2.5ft 8s 6s 7 11 mph 1024.8mb 75f 60f
2:40am  -   -   -  7 11 mph 1024.7mb 75f 60f
2:30am  -   -   -  7 9 mph 1024.7mb 75f 60f
2:20am  -   -   -  9 11 mph 1024.8mb 75f 60f
2:10am  -   -   -  9 13 mph 1025.1mb 75f 60f
2:00am  -   -   -  4 11 mph 1024.9mb - 61f
1:50am 2.5ft 8s 6s 7 11 mph 1025mb 75f 61f
1:40am  -   -   -  7 16 mph 1025mb 75f 63f
1:30am  -   -   -  9 16 mph 1025mb 75f 62f
1:20am  -   -   -  7 11 mph 1024.9mb 75f 62f
1:10am  -   -   -  4 11 mph 1024.9mb 75f 62f
1:00am  -   -   -  7 13 mph 1024.9mb - 62f
12:50am 2.5ft 8s 6s 4 13 mph 1024.8mb 75f 61f
12:40am 2.5ft  -  6s 4 11 mph 1024.8mb 75f 61f
12:30am  -   -   -  2 4 mph 1025mb 75f 60f
12:20am  -   -   -  4 7 mph 1025.1mb 75f 60f
12:10am  -   -   -  4 7 mph 1025mb 75f 60f
12:00am  -   -   -  7 9 mph 1025.1mb - 59f
Mon 11/20 11:50pm 3ft 8s 6s 4 9 mph 1025.1mb 75f 59f
11:40pm  -   -   -  7 9 mph 1025.2mb 75f 59f
11:30pm  -   -   -  7 9 mph 1025.2mb 75f -
11:20pm  -   -   -  7 9 mph 1025.2mb 75f 58f
11:10pm  -   -   -  4 9 mph 1025.3mb 75f 58f
11:00pm  -   -   -  4 9 mph 1025.3mb 75f 58f
10:50pm 3ft 8s 6s 7 9 mph 1025.3mb 75f 58f
10:40pm  -   -   -  7 9 mph 1025.3mb 75f 57f
10:30pm  -   -   -  7 9 mph 1025.2mb 75f 57f
10:20pm  -   -   -  7 9 mph 1025.3mb 75f 57f
10:10pm  -   -   -  7 9 mph 1025.4mb 75f 57f
10:00pm  -   -   -  4 9 mph 1025.4mb 75f 57f
9:50pm 3ft 8s 6s 4 9 mph 1025.3mb 75f 57f
9:40pm  -   -   -  4 9 mph 1025.3mb 75f 57f
9:30pm  -   -   -  4 7 mph 1025.2mb 75f 57f
9:20pm  -   -   -  4 9 mph 1025.1mb 75f 56f
9:10pm  -   -   -  7 11 mph 1024.8mb 75f 56f
9:00pm  -   -   -  7 11 mph 1024.7mb 75f 56f
8:50pm 3ft 8s 6s 7 9 mph 1024.9mb 75f 56f
8:40pm 3ft  -  6s 7 11 mph 1024.8mb 75f 56f
8:30pm  -   -   -  7 11 mph 1024.8mb 75f 56f
8:20pm  -   -   -  7 11 mph 1024.8mb 75f 55f
8:10pm  -   -   -  7 11 mph 1024.7mb 74f 55f
8:00pm  -   -   -  7 9 mph 1024.8mb 73f 55f
7:50pm 3ft 8s 6s 7 9 mph 1024.8mb 72f 55f
7:40pm  -   -   -  7 11 mph 1025mb 72f 55f
7:30pm  -   -   -  4 9 mph 1024.9mb 71f 55f
7:20pm  -   -   -  4 7 mph 1024.9mb 69f 55f
7:10pm  -   -   -  4 9 mph 1025.1mb 69f 55f
7:00pm  -   -   -  4 9 mph 1025.1mb 68f 54f
6:50pm 3.5ft 8s 6s 7 9 mph 1024.9mb 67f 54f
6:40pm 3.5ft  -  6s 7 9 mph 1024.9mb 67f 54f
6:30pm  -   -   -  7 9 mph 1024.8mb 67f 54f
6:20pm  -   -   -  7 11 mph 1024.8mb 66f 54f
6:10pm  -   -   -  7 13 mph 1024.8mb 66f 54f
6:00pm  -   -   -  7 11 mph 1024.8mb 66f 54f
5:50pm 3.5ft 8s 6s 7 11 mph 1025mb 66f 54f
5:40pm 3.5ft  -  6s 9 13 mph 1024.9mb 66f 54f
5:30pm  -   -   -  9 13 mph 1024.7mb 66f 54f
5:20pm  -   -   -  9 11 mph 1024.7mb 66f 54f
5:10pm  -   -   -  9 13 mph 1024.5mb 66f 54f
5:00pm  -   -   -  9 13 mph 1024.3mb 66f 54f
4:50pm 3.5ft 9s 6s 11 13 mph 1024.2mb 66f 53f
4:40pm 3.5ft  -  6s 9 13 mph 1024.2mb 66f 53f
4:30pm  -   -   -  11 13 mph 1024.2mb 66f 53f
4:20pm  -   -   -  11 18 mph 1024.2mb 66f 53f
4:10pm  -   -   -  11 16 mph 1024.2mb 66f 53f
4:00pm  -   -   -  11 16 mph 1024.2mb 66f 53f
3:50pm 3.5ft 7s 5s 11 16 mph 1024.1mb 66f 53f
3:40pm 3.5ft  -  5s 11 16 mph 1024.1mb 66f 53f
3:30pm  -   -   -  11 16 mph 1024.1mb 65f 53f
3:20pm  -   -   -  11 16 mph 1024mb 66f 53f
3:10pm  -   -   -  11 16 mph 1023.9mb 65f 53f
3:00pm  -   -   -  11 16 mph 1023.8mb 65f 52f
2:50pm 3.5ft 8s 5s 11 16 mph 1023.8mb 65f 53f
2:40pm 3.5ft  -  5s 11 16 mph 1023.7mb 65f 52f
2:30pm  -   -   -  11 16 mph 1023.9mb 66f 52f
2:20pm  -   -   -  11 16 mph 1023.9mb 65f 52f
2:10pm  -   -   -  11 16 mph 1023.9mb 65f 52f
2:00pm  -   -   -  11 16 mph 1023.9mb 65f 52f
1:50pm 3.5ft 8s 5s 11 13 mph 1023.9mb 65f 52f
1:40pm  -   -   -  11 16 mph 1023.9mb 66f 52f
1:30pm  -   -   -  11 16 mph 1023.9mb 66f 52f
1:20pm  -   -   -  11 16 mph 1023.7mb 66f 51f
1:10pm  -   -   -  11 16 mph 1023.7mb 66f 51f